Location: Champs
(48.8539°N, 2.6040°E)
Time: 13:27:35
(UTC+00:00)

USA 308 - Pass Details

Date: 26 October 2021
Orbit: 565 x 570 km, 54.0° (Epoch: 04 December)

Event Time Altitude Azimuth Distance (km) Brightness Sun altitude
Exits shadow 04:53:28 24° 234° (SW) 1,219 4.1 -16.0°
Maximum altitude 04:56:01 81° 150° (SSE) 586 2.9 -15.5°
Drops below altitude 10° 05:00:19 10° 64° (ENE) 1,882 6.5 -14.8°
Sets 05:02:34 0° 63° (ENE) 2,782 7.5 -14.5°
